This demonstration page uses our WeatherBlox Daily Observations layout. Learn more.

Left ArrowRight Arrow

Hourly Observations for May 15, 2022

Temp ( °F °C ) Dew Point ( °F °C ) Humidity (%) Winds ( mph kmh ) Pressure ( in mb ) Visibility ( mi km ) Precip ( " mm )
12:53 am 00:53 Clear 46 7.8 30 -1.1 54 54 WNW 8 13 30.06 1018 10 16 0.00 0.00
1:53 am 01:53 Clear 45 7.2 31 -0.6 58 58 SW 10 17 30.09 1019 10 16 0.00 0.00
2:53 am 02:53 Clear 41 5 30 -1.1 65 65 SW 10 17 30.09 1019 10 16 0.00 0.00
3:53 am 03:53 Clear 42 5.6 31 -0.6 65 65 SW 7 11 30.09 1019 10 16 0.00 0.00
4:53 am 04:53 Clear 43 6.1 31 -0.6 63 63 SW 14 22 30.09 1019 10 16 0.00 0.00
5:53 am 05:53 Sunny 42 5.6 31 -0.6 65 65 WSW 13 20 30.11 1020 10 16 0.00 0.00
6:53 am 06:53 Sunny 45 7.2 31 -0.6 58 58 SW 14 22 30.11 1020 10 16 0.00 0.00
7:53 am 07:53 Sunny 51 10.6 33 0.6 50 50 SW 17 28 30.12 1020 10 16 0.00 0.00
8:53 am 08:53 Sunny 55 12.8 33 0.6 44 44 SW 16 26 30.12 1020 10 16 0.00 0.00
9:53 am 09:53 Sunny 59 15 32 0 36 36 WSW 17 28 30.11 1020 10 16 0.00 0.00
10:53 am 10:53 Sunny 65 18.3 28 -2.2 25 25 W 15 24 30.08 1019 10 16 0.00 0.00
11:53 am 11:53 Sunny 66 18.9 26 -3.3 22 22 WSW 18 30 30.07 1018 10 16 0.00 0.00
12:53 pm 12:53 Sunny 68 20 25 -3.9 20 20 W 13 20 30.05 1018 10 16 0.00 0.00
1:53 pm 13:53 Sunny 69 20.6 25 -3.9 19 19 WSW 14 22 30.03 1017 10 16 0.00 0.00
2:53 pm 14:53 Sunny 72 22.2 24 -4.4 17 17 W 16 26 30.01 1016 10 16 0.00 0.00
3:53 pm 15:53 Sunny 74 23.3 24 -4.4 15 15 WSW 17 28 29.98 1015 10 16 0.00 0.00
4:53 pm 16:53 Sunny 73 22.8 22 -5.6 15 15 W 9 15 29.96 1015 10 16 0.00 0.00
5:53 pm 17:53 Sunny 74 23.3 24 -4.4 15 15 W 8 13 29.93 1014 10 16 0.00 0.00
6:53 pm 18:53 Sunny 72 22.2 25 -3.9 17 17 W 6 9 29.91 1013 10 16 0.00 0.00
7:53 pm 19:53 Sunny 69 20.6 26 -3.3 20 20 NW 3 6 29.90 1013 10 16 0.00 0.00
8:53 pm 20:53 Sunny 62 16.7 26 -3.3 25 25 SSE 5 7 29.89 1012 10 16 0.00 0.00
9:53 pm 21:53 Clear 59 15 30 -1.1 33 33 S 7 11 29.89 1012 10 16 0.00 0.00
10:53 pm 22:53 Mostly Clear 62 16.7 29 -1.7 29 29 S 3 6 29.87 1012 10 16 0.00 0.00
11:53 pm 23:53 Mostly Clear 54 12.2 29 -1.7 38 38 S 7 11 29.87 1012 10 16 0.00 0.00

Powered by AerisWeather